Regional Weather Roundup
Issued by NWS

Home | Current Version | Previous Version | Graphics & Text | Print | Product List | Glossary On
Versions: 1 2 3 4 5 6 7 8 9 10 11 12 13 14 15 16 17 18 19 20 21 22 23 24 25 26 27 28 29 30 31 32 33 34 35 36 37 38 39 40 41 42 43 44 45 46 47 48 49 50
998
ASUS43 KBIS 052010
RWRND

NORTH DAKOTA REGIONAL WEATHER ROUNDUP
NATIONAL WEATHER SERVICE BISMARCK ND
200 PM CST MON DEC 05 2016

NOTE: "FAIR" INDICATES FEW OR NO CLOUDS BELOW 12,000 FEET WITH NO
SIGNIFICANT WEATHER AND/OR OBSTRUCTIONS TO VISIBILITY.


NDZ001>003-009>011-017-052100-
NORTHWEST NORTH DAKOTA

CITY           SKY/WX    TMP DP  RH WIND       PRES   REMARKS
WILLISTON      HVY SNOW  17  12  80 NW26G38   29.73R VSB 1/4 WCI  -2
MINOT          CLOUDY    23  20  88 W17       29.58R WCI   9
MINOT AFB      CLOUDY    21  19  93 NW13      29.57R WCI   9
$$

NDZ018>021-031>035-040>046-052100-
SOUTHWEST NORTH DAKOTA

CITY           SKY/WX    TMP DP  RH WIND       PRES   REMARKS
BISMARCK       SNOW      28  26  92 NW20G29   29.60R VSB 1/4 WCI  15
DICKINSON      SNOW      18  14  84 NW22G35   29.66R VSB 1/4 WCI   1
GARRISON         N/A     24  19  81 W15       29.60R WCI  11
HETTINGER ARPT CLOUDY    20  15  81 NW31G40   29.68R BLWGSNOWWCI   1
$$

NDZ004>008-012>016-024-026-027-054-052100-
NORTHEAST NORTH DAKOTA

CITY           SKY/WX    TMP DP  RH WIND       PRES   REMARKS
GRAND FORKS    CLOUDY    30  27  88 NE9       29.62F
GRND FRKS AFB  CLOUDY    28  27  95 NE10      29.62F WCI  19
DEVILS LAKE    CLOUDY    26  25  96 E9        29.60F WCI  17
$$

NDZ022-023-025-028>030-036>039-047>053-052100-
SOUTHEAST NORTH DAKOTA

CITY           SKY/WX    TMP DP  RH WIND       PRES   REMARKS
FARGO          CLOUDY    35  29  78 E6        29.57R
JAMESTOWN      CLOUDY    29  26  89 NE10      29.51F WCI  20
$$





USA.gov is the U.S. government's official web portal to all federal, state and local government web resources and services.